Simultaneous Nadir Overpasses (SNOs) Predictions

Prediction of SNOs between GOES-16 and TERRA Satellite Orbit:

Table of predicted SNOs for the next 14.0 days since TLE Epoch: 11/27/2021
Index Date Time (GOES-16) GOES-16 Lat,Lon TERRA Lat,Lon Distance(km) Time Diff (sec)
1 11/28/2021 15:24:28 -0.03, -75.20 -0.03, -75.28 8.57 80
2 11/30/2021 15:14:53 -0.03, -75.20 -0.61, -72.31 327.21 80
3 12/01/2021 03:36:17 0.02, -75.18 -0.46, -77.51 265.36 80
4 12/03/2021 03:21:22 0.02, -75.17 0.12, -74.55 70.55 80
5 12/05/2021 03:09:08 0.02, -75.17 0.77, -71.59 406.45 80
6 12/05/2021 15:30:23 -0.01, -75.18 0.31, -76.75 178.05 80
7 12/07/2021 15:20:48 -0.00, -75.18 -0.29, -73.79 158.55 80
8 12/08/2021 03:42:12 0.00, -75.17 -0.78, -78.99 433.51 80
9 12/09/2021 15:08:34 0.00, -75.19 -0.95, -70.83 495.98 80
10 12/10/2021 03:29:57 -0.00, -75.18 -0.18, -76.02 95.83 80
